Air Resources Laboratory banner image
Air Resources Laboratory web site National Oceanic and Atmospheric Administration (NOAA)

la roundup


Office: LIX

ASUS44 KLIX 262107
RWRLA
LOUISIANA WEATHER ROUNDUP
NATIONAL WEATHER SERVICE NEW ORLEANS LA
400 PM CDT SAT MAY 26 2018

NOTE: "FAIR" INDICATES FEW OR NO CLOUDS BELOW 12,000 FEET WITH NO
      SIGNIFICANT WEATHER AND/OR OBSTRUCTIONS TO VISIBILITY.
      SKY/WX - SKY CONDITION AND SIGNIFICANT WEATHER.
      TMP - AIR TEMPERATURE.    DP   - DEWPOINT TEMPERATURE.
      RH  - RELATIVE HUMIDITY.  PRES - PRESSURE.
      HX  - HEAT INDEX.         WCI  - WIND CHILL INDEX.

*  THESE STATIONS ARE NOT NWS OR FAA STATIONS AND ARE NOT UNDER
   NWS QUALITY CONTROL.

LAZ040-048-061>063-065-066-069-262200-
SOUTHEAST LOUISIANA

CITY           SKY/WX    TMP DP  RH WIND       PRES   REMARKS
N.O. INTL ARPT PTSUNNY   78  71  79 S9        29.83F
N.O. LAKEFRONT FAIR      86  69  56 SE8       29.82F
N.O. DOWNTOWN* TSTM      77  73  88 W8        29.84F FOG
RESERVE*       LGT RAIN  80  74  83 E6        29.84F
SLIDELL        FAIR      85  68  56 SE8       29.82F
BATON ROUGE    PTSUNNY   74  68  81 N5        29.84R
BOOTHVILLE     FAIR      85  73  67 E8        29.83F
BELLE CHASSE   TSTM      73  71  93 N8        29.83F
BOGALUSA*      FAIR      86  67  53 S6        29.82F THUNDER
GALLIANO*      TSTM      76  67  74 NW17G26   29.85S
NEW ROADS*     FAIR      70  67  92 SE6       29.85R THUNDER
GONZALES*      FAIR      78  69  74 S5        29.84R
HAMMOND*       CLOUDY    82  70  65 S9        29.84S
HOUMA*         NOT AVBL
PORT FOURCHON* PTCLDY    84  72  65 NE12      29.84F

$$

LAZ041-044-053-054-262200-
SOUTHWEST LOUISIANA

CITY           SKY/WX    TMP DP  RH WIND       PRES   REMARKS
LAKE CHARLES   PTSUNNY   75  69  81 W5        29.82F
LAFAYETTE      FAIR      77  75  93 CALM      29.82F
PATTERSON      FAIR      77  70  79 CALM      29.84F
SALT POINT       N/A    N/A N/A N/A CALM      29.82F
NEW IBERIA     FAIR      81  71  71 VRB3      29.83F
CHENAULT AIRPK PTSUNNY   70  68  94 NW8G17    29.82F THUNDER

$$

LAZ027-028-262200-
CENTRAL LOUISIANA

CITY           SKY/WX    TMP DP  RH WIND       PRES   REMARKS
FORT POLK      TSTM      69  65  87 E3G13     29.90R
ALEXANDRIA INT FAIR      78  68  71 NW12      29.80R
ALEXANDRIA     FAIR      83  72  69 S9G23     29.82R

$$

LAZ001-002-262200-
NORTHWEST LOUISIANA

CITY           SKY/WX    TMP DP  RH WIND       PRES   REMARKS
SHREVEPORT     FAIR      93  66  40 W8        29.76F HX  96
BARKSDALE AFB  PTSUNNY   92  66  41 W3        29.76F HX  95
DTN SHREVEPORT FAIR      93  69  45 NW6       29.76F HX  98

$$

LAZ014-016-262200-
NORTHEAST LOUISIANA

CITY           SKY/WX    TMP DP  RH WIND       PRES   REMARKS
MONROE         PTSUNNY   85  73  67 S8        29.78F
TALLULAH       FAIR      76  73  91 E21       29.82R

$$



ASUS44 KLIX 262107
RWRLIX
NEW ORLEANS REGIONAL WEATHER ROUNDUP
NATIONAL WEATHER SERVICE NEW ORLEANS LA
400 PM CDT SAT MAY 26 2018

NOTE: "FAIR" INDICATES FEW OR NO CLOUDS BELOW 12,000 FEET WITH NO
      SIGNIFICANT WEATHER AND/OR OBSTRUCTIONS TO VISIBILITY.
      SKY/WX - SKY CONDITION AND SIGNIFICANT WEATHER.
      TMP - AIR TEMPERATURE.     DP    - DEWPOINT TEMPERATURE.
      RH  - RELATIVE HUMIDITY.   PRES  - PRESSURE.
      HI  - HEAT INDEX.          WCI   - WIND CHILL INDEX.

*  THESE STATIONS ARE NOT NWS OR FAA STATIONS AND ARE NOT UNDER
   NWS QUALITY CONTROL.

LAZ038-040-048-061>063-065>067-069-262200-
SOUTHEAST LOUISIANA

CITY           SKY/WX    TMP DP  RH WIND       PRES   REMARKS
N.O. INTL ARPT PTSUNNY   78  71  79 S9        29.83F
N.O. LAKEFRONT FAIR      86  69  56 SE8       29.82F
N.O. DOWNTOWN* TSTM      77  73  88 W8        29.84F FOG
RESERVE*       LGT RAIN  80  74  83 E6        29.84F
SLIDELL        FAIR      85  68  56 SE8       29.82F
BATON ROUGE    PTSUNNY   74  68  81 N5        29.84R
BOOTHVILLE     FAIR      85  73  67 E8        29.83F
BELLE CHASSE   TSTM      73  71  93 N8        29.83F
BOGALUSA*      FAIR      86  67  53 S6        29.82F THUNDER
GALLIANO*      TSTM      76  67  74 NW17G26   29.85S
NEW ROADS*     FAIR      70  67  92 SE6       29.85R THUNDER
GONZALES*      FAIR      78  69  74 S5        29.84R
HAMMOND*       CLOUDY    82  70  65 S9        29.84S
HOUMA*         NOT AVBL
PORT FOURCHON* PTCLDY    84  72  65 NE12      29.84F

$$

MSZ070-080>082-262200-
SOUTHERN MISSISSIPPI

CITY           SKY/WX    TMP DP  RH WIND       PRES   REMARKS
MCCOMB         PTSUNNY   87  68  52 S6        29.81F
GULFPORT       FAIR      85  72  65 SE16      29.82F
BILOXI         FAIR      85  72  66 SE12      29.83F
PASCAGOULA     FAIR      83  69  62 MISG      29.84F
STENNIS ARPT*  MOSUNNY   86  70  58 S7        29.83F

$$

COASTAL OBSERVATIONS
LAKE AND NEARSHORE STATIONS

STATION/POSITION TIME  SKY/WX   TEMP    WIND        PRES    WAVE
                                AIR SEA DIR/SP/G            HT/PER
                 (UTC)          (F)     (DEG/KT/KT) (MB)    (FT/S)
WAVELAND YACHT   2048            81 85  140/ 12/ 14 1010.0
GRAND ISLE       2048            83 85  120/  4/  7 1010.2
SOUTHWEST PASS   2048            85 79   80/ 22/ 26 1010.5
NEW CANAL        2048            81 86  210/  4/  5 1010.1
SHELL BEACH      2048            82 89  100/  9/ 15 1010.3

OFFSHORE STATIONS

STATION/POSITION TIME  SKY/WX   TEMP    WIND        PRES    WAVE
                                AIR SEA DIR/SP/G            HT/PER
                 (UTC)          (F)     (DEG/KT/KT) (MB)    (FT/S)
64 S DAUPHIN ISL 2050               86   80/ 19/ 23 1009.6    2/ 4

$$



ASUS44 KLIX 262107
RWRLA
LOUISIANA WEATHER ROUNDUP
NATIONAL WEATHER SERVICE NEW ORLEANS LA
400 PM CDT SAT MAY 26 2018

NOTE: "FAIR" INDICATES FEW OR NO CLOUDS BELOW 12,000 FEET WITH NO
      SIGNIFICANT WEATHER AND/OR OBSTRUCTIONS TO VISIBILITY.
      SKY/WX - SKY CONDITION AND SIGNIFICANT WEATHER.
      TMP - AIR TEMPERATURE.    DP   - DEWPOINT TEMPERATURE.
      RH  - RELATIVE HUMIDITY.  PRES - PRESSURE.
      HX  - HEAT INDEX.         WCI  - WIND CHILL INDEX.

*  THESE STATIONS ARE NOT NWS OR FAA STATIONS AND ARE NOT UNDER
   NWS QUALITY CONTROL.

LAZ040-048-061>063-065-066-069-262200-
SOUTHEAST LOUISIANA

CITY           SKY/WX    TMP DP  RH WIND       PRES   REMARKS
N.O. INTL ARPT PTSUNNY   78  71  79 S9        29.83F
N.O. LAKEFRONT FAIR      86  69  56 SE8       29.82F
N.O. DOWNTOWN* TSTM      77  73  88 W8        29.84F FOG
RESERVE*       LGT RAIN  80  74  83 E6        29.84F
SLIDELL        FAIR      85  68  56 SE8       29.82F
BATON ROUGE    PTSUNNY   74  68  81 N5        29.84R
BOOTHVILLE     FAIR      85  73  67 E8        29.83F
BELLE CHASSE   TSTM      73  71  93 N8        29.83F
BOGALUSA*      FAIR      86  67  53 S6        29.82F THUNDER
GALLIANO*      TSTM      76  67  74 NW17G26   29.85S
NEW ROADS*     FAIR      70  67  92 SE6       29.85R THUNDER
GONZALES*      FAIR      78  69  74 S5        29.84R
HAMMOND*       CLOUDY    82  70  65 S9        29.84S
HOUMA*         NOT AVBL
PORT FOURCHON* PTCLDY    84  72  65 NE12      29.84F

$$

LAZ041-044-053-054-262200-
SOUTHWEST LOUISIANA

CITY           SKY/WX    TMP DP  RH WIND       PRES   REMARKS
LAKE CHARLES   PTSUNNY   75  69  81 W5        29.82F
LAFAYETTE      FAIR      77  75  93 CALM      29.82F
PATTERSON      FAIR      77  70  79 CALM      29.84F
SALT POINT       N/A    N/A N/A N/A CALM      29.82F
NEW IBERIA     FAIR      81  71  71 VRB3      29.83F
CHENAULT AIRPK PTSUNNY   70  68  94 NW8G17    29.82F THUNDER

$$

LAZ027-028-262200-
CENTRAL LOUISIANA

CITY           SKY/WX    TMP DP  RH WIND       PRES   REMARKS
FORT POLK      TSTM      69  65  87 E3G13     29.90R
ALEXANDRIA INT FAIR      78  68  71 NW12      29.80R
ALEXANDRIA     FAIR      83  72  69 S9G23     29.82R

$$

LAZ001-002-262200-
NORTHWEST LOUISIANA

CITY           SKY/WX    TMP DP  RH WIND       PRES   REMARKS
SHREVEPORT     FAIR      93  66  40 W8        29.76F HX  96
BARKSDALE AFB  PTSUNNY   92  66  41 W3        29.76F HX  95
DTN SHREVEPORT FAIR      93  69  45 NW6       29.76F HX  98

$$

LAZ014-016-262200-
NORTHEAST LOUISIANA

CITY           SKY/WX    TMP DP  RH WIND       PRES   REMARKS
MONROE         PTSUNNY   85  73  67 S8        29.78F
TALLULAH       FAIR      76  73  91 E21       29.82R

$$



ASUS44 KLIX 262107
RWRLIX
NEW ORLEANS REGIONAL WEATHER ROUNDUP
NATIONAL WEATHER SERVICE NEW ORLEANS LA
400 PM CDT SAT MAY 26 2018

NOTE: "FAIR" INDICATES FEW OR NO CLOUDS BELOW 12,000 FEET WITH NO
      SIGNIFICANT WEATHER AND/OR OBSTRUCTIONS TO VISIBILITY.
      SKY/WX - SKY CONDITION AND SIGNIFICANT WEATHER.
      TMP - AIR TEMPERATURE.     DP    - DEWPOINT TEMPERATURE.
      RH  - RELATIVE HUMIDITY.   PRES  - PRESSURE.
      HI  - HEAT INDEX.          WCI   - WIND CHILL INDEX.

*  THESE STATIONS ARE NOT NWS OR FAA STATIONS AND ARE NOT UNDER
   NWS QUALITY CONTROL.

LAZ038-040-048-061>063-065>067-069-262200-
SOUTHEAST LOUISIANA

CITY           SKY/WX    TMP DP  RH WIND       PRES   REMARKS
N.O. INTL ARPT PTSUNNY   78  71  79 S9        29.83F
N.O. LAKEFRONT FAIR      86  69  56 SE8       29.82F
N.O. DOWNTOWN* TSTM      77  73  88 W8        29.84F FOG
RESERVE*       LGT RAIN  80  74  83 E6        29.84F
SLIDELL        FAIR      85  68  56 SE8       29.82F
BATON ROUGE    PTSUNNY   74  68  81 N5        29.84R
BOOTHVILLE     FAIR      85  73  67 E8        29.83F
BELLE CHASSE   TSTM      73  71  93 N8        29.83F
BOGALUSA*      FAIR      86  67  53 S6        29.82F THUNDER
GALLIANO*      TSTM      76  67  74 NW17G26   29.85S
NEW ROADS*     FAIR      70  67  92 SE6       29.85R THUNDER
GONZALES*      FAIR      78  69  74 S5        29.84R
HAMMOND*       CLOUDY    82  70  65 S9        29.84S
HOUMA*         NOT AVBL
PORT FOURCHON* PTCLDY    84  72  65 NE12      29.84F

$$

MSZ070-080>082-262200-
SOUTHERN MISSISSIPPI

CITY           SKY/WX    TMP DP  RH WIND       PRES   REMARKS
MCCOMB         PTSUNNY   87  68  52 S6        29.81F
GULFPORT       FAIR      85  72  65 SE16      29.82F
BILOXI         FAIR      85  72  66 SE12      29.83F
PASCAGOULA     FAIR      83  69  62 MISG      29.84F
STENNIS ARPT*  MOSUNNY   86  70  58 S7        29.83F

$$

COASTAL OBSERVATIONS
LAKE AND NEARSHORE STATIONS

STATION/POSITION TIME  SKY/WX   TEMP    WIND        PRES    WAVE
                                AIR SEA DIR/SP/G            HT/PER
                 (UTC)          (F)     (DEG/KT/KT) (MB)    (FT/S)
WAVELAND YACHT   2048            81 85  140/ 12/ 14 1010.0
GRAND ISLE       2048            83 85  120/  4/  7 1010.2
SOUTHWEST PASS   2048            85 79   80/ 22/ 26 1010.5
NEW CANAL        2048            81 86  210/  4/  5 1010.1
SHELL BEACH      2048            82 89  100/  9/ 15 1010.3

OFFSHORE STATIONS

STATION/POSITION TIME  SKY/WX   TEMP    WIND        PRES    WAVE
                                AIR SEA DIR/SP/G            HT/PER
                 (UTC)          (F)     (DEG/KT/KT) (MB)    (FT/S)
64 S DAUPHIN ISL 2050               86   80/ 19/ 23 1009.6    2/ 4

$$





Office: LCH ASUS44 KLCH 262110 RWRLCH REGIONAL WEATHER ROUNDUP NATIONAL WEATHER SERVICE LAKE CHARLES LA 400 PM CDT SAT MAY 26 2018 Note: "fair" indicates few or no clouds below 12,000 feet with no significant weather and/or obstructions to visibility. ACROSS SOUTHEAST TEXAS CITY SKY/WX TMP DP RH WIND PRES REMARKS BEAUMONT FAIR 85 69 58 S12 29.79F BEAUMONT CITY FAIR 85 71 62 SE9 29.79F ORANGE FAIR 86 73 64 SW6 29.81F JASPER PTSUNNY 92 69 45 SW7 29.81R $$ ACROSS CENTRAL LOUISIANA CITY SKY/WX TMP DP RH WIND PRES REMARKS LEESVILLE LGT RAIN 69 65 88 SE3 29.90R FULLERTON TSTM 72 71 97 S3 29.82R FOG ALEXANDRIA INT FAIR 78 68 71 NW12 29.80R ESLER FIELD FAIR 83 72 69 S9G23 29.82R DERIDDER CLOUDY 77 67 71 SE10G17 29.84R OAKDALE FAIR 78 69 73 SW6 29.84R OPELOUSAS LGT RAIN 74 70 87 S5 29.83F $$ ACROSS SOUTHWEST AND SOUTH CENTRAL LOUISIANA CITY SKY/WX TMP DP RH WIND PRES REMARKS SULPHUR FAIR 80 67 64 NE9 29.83F LAKE CHARLES PTSUNNY 75 69 81 W5 29.82F CHENNAULT INT PTSUNNY 70 68 94 NW8G17 29.82F THUNDER CAMERON PHI CLEAR 82 75 78 S6 29.83S DEQUINCY TSTM 67 65 90 E12G20 29.85R JENNINGS FAIR 74 69 82 SW5 29.84F LAFAYETTE FAIR 77 75 93 CALM 29.82F NEW IBERIA FAIR 81 71 71 VRB3 29.83F ABBEVILLE FAIR 81 75 84 CALM 29.83F PATTERSON FAIR 77 70 79 CALM 29.84F SALT POINT N/A N/A N/A N/A CALM 29.82F $$ SELECTED SITES ACROSS THE REGION CITY SKY/WX TMP DP RH WIND PRES REMARKS HOUSTON BUSH PTSUNNY 92 72 51 W5 29.78F HOUSTON HOBBY PTSUNNY 91 72 53 S5 29.77F GALVESTON FAIR 87 76 69 S13 29.80F COLLEGE STAT MOSUNNY 92 72 51 SW7 29.78F CONROE PTSUNNY 91 74 57 VRB5 29.79F HX 100 HUNTSVILLE SUNNY 91 70 49 VRB5 29.79F LUFKIN MOSUNNY 92 71 50 SW8 29.77F SHREVEPORT FAIR 93 66 40 W8 29.76F MONROE PTSUNNY 85 73 67 S8 29.78F NATCHEZ MS PTSUNNY 82 70 65 SE9 29.82S BATON ROUGE PTSUNNY 74 68 81 N5 29.84R N.O. INTL ARPT PTSUNNY 78 71 79 S9 29.83F SLIDELL FAIR 85 68 56 SE8 29.82F $$ MARINE REPORTS STATION/POSITION TIME SKY/WX TEMP WIND PRES VSBY AIR SEA DIR/SP/G (UTC) (F) (DEG/KT/KT) (MB) (MI) BUOY 30 S HIGH I NOT AVBL SEA RIM ST PARK 2100 81 220/ 8/ 9 1009.6F PORT ARTHUR 2048 81 84 170/ 6/ 9 1009.0F SABINE PASS N 2048 83 87 190/ 6/ 10 1010.7F TEXAS POINT NOT AVBL CALCASIEU PASS 2048 82 85 170/ 5/ 6 1009.3F LK CHARLES BEACH 2048 74 85 1009.5F MARSH ISLAND 2000 82 N/A FRESH WATER LOCK 2048 81 86 190/ 7/ 9 1010.3F AMERADA PASS 2048 80 83 60/ 5/ 7 1010.2F $$ ASUS44 KLCH 262110 RWRLCH REGIONAL WEATHER ROUNDUP NATIONAL WEATHER SERVICE LAKE CHARLES LA 400 PM CDT SAT MAY 26 2018 Note: "fair" indicates few or no clouds below 12,000 feet with no significant weather and/or obstructions to visibility. ACROSS SOUTHEAST TEXAS CITY SKY/WX TMP DP RH WIND PRES REMARKS BEAUMONT FAIR 85 69 58 S12 29.79F BEAUMONT CITY FAIR 85 71 62 SE9 29.79F ORANGE FAIR 86 73 64 SW6 29.81F JASPER PTSUNNY 92 69 45 SW7 29.81R $$ ACROSS CENTRAL LOUISIANA CITY SKY/WX TMP DP RH WIND PRES REMARKS LEESVILLE LGT RAIN 69 65 88 SE3 29.90R FULLERTON TSTM 72 71 97 S3 29.82R FOG ALEXANDRIA INT FAIR 78 68 71 NW12 29.80R ESLER FIELD FAIR 83 72 69 S9G23 29.82R DERIDDER CLOUDY 77 67 71 SE10G17 29.84R OAKDALE FAIR 78 69 73 SW6 29.84R OPELOUSAS LGT RAIN 74 70 87 S5 29.83F $$ ACROSS SOUTHWEST AND SOUTH CENTRAL LOUISIANA CITY SKY/WX TMP DP RH WIND PRES REMARKS SULPHUR FAIR 80 67 64 NE9 29.83F LAKE CHARLES PTSUNNY 75 69 81 W5 29.82F CHENNAULT INT PTSUNNY 70 68 94 NW8G17 29.82F THUNDER CAMERON PHI CLEAR 82 75 78 S6 29.83S DEQUINCY TSTM 67 65 90 E12G20 29.85R JENNINGS FAIR 74 69 82 SW5 29.84F LAFAYETTE FAIR 77 75 93 CALM 29.82F NEW IBERIA FAIR 81 71 71 VRB3 29.83F ABBEVILLE FAIR 81 75 84 CALM 29.83F PATTERSON FAIR 77 70 79 CALM 29.84F SALT POINT N/A N/A N/A N/A CALM 29.82F $$ SELECTED SITES ACROSS THE REGION CITY SKY/WX TMP DP RH WIND PRES REMARKS HOUSTON BUSH PTSUNNY 92 72 51 W5 29.78F HOUSTON HOBBY PTSUNNY 91 72 53 S5 29.77F GALVESTON FAIR 87 76 69 S13 29.80F COLLEGE STAT MOSUNNY 92 72 51 SW7 29.78F CONROE PTSUNNY 91 74 57 VRB5 29.79F HX 100 HUNTSVILLE SUNNY 91 70 49 VRB5 29.79F LUFKIN MOSUNNY 92 71 50 SW8 29.77F SHREVEPORT FAIR 93 66 40 W8 29.76F MONROE PTSUNNY 85 73 67 S8 29.78F NATCHEZ MS PTSUNNY 82 70 65 SE9 29.82S BATON ROUGE PTSUNNY 74 68 81 N5 29.84R N.O. INTL ARPT PTSUNNY 78 71 79 S9 29.83F SLIDELL FAIR 85 68 56 SE8 29.82F $$ MARINE REPORTS STATION/POSITION TIME SKY/WX TEMP WIND PRES VSBY AIR SEA DIR/SP/G (UTC) (F) (DEG/KT/KT) (MB) (MI) BUOY 30 S HIGH I NOT AVBL SEA RIM ST PARK 2100 81 220/ 8/ 9 1009.6F PORT ARTHUR 2048 81 84 170/ 6/ 9 1009.0F SABINE PASS N 2048 83 87 190/ 6/ 10 1010.7F TEXAS POINT NOT AVBL CALCASIEU PASS 2048 82 85 170/ 5/ 6 1009.3F LK CHARLES BEACH 2048 74 85 1009.5F MARSH ISLAND 2000 82 N/A FRESH WATER LOCK 2048 81 86 190/ 7/ 9 1010.3F AMERADA PASS 2048 80 83 60/ 5/ 7 1010.2F $$